This demonstration page uses our WeatherBlox Daily Observations layout. Learn more.

Left ArrowRight Arrow

34.02893, -84.19858

Hourly Observations for June 16, 2020

Temp ( °F °C ) Dew Point ( °F °C ) Humidity (%) Winds ( mph kmh ) Pressure ( in mb ) Visibility ( mi km ) Precip ( " mm )
12:53 am 00:53 Clear 63 17.2 55 12.8 76 76 VRB 6 9 30.18 1022 10 16 0.00 0.00
1:53 am 01:53 Mostly Clear 61 16.1 55 12.8 81 81 VRB 5 7 30.19 1022 10 16 0.00 0.00
2:48 am 02:48 Mostly Cloudy 61 16 54 12 77 77 VRB 5 7 30.20 1023 10 16 0.00 0.00
2:53 am 02:53 Mostly Cloudy 60 15.6 54 12.2 80 80 VRB 5 7 30.18 1022 10 16 0.00 0.00
3:53 am 03:53 Cloudy 60 15.6 54 12.2 80 80 Calm 30.17 1022 10 16 0.00 0.00
4:53 am 04:53 Mostly Cloudy 60 15.6 54 12.2 80 80 VRB 5 7 30.20 1023 10 16 0.00 0.00
5:53 am 05:53 Cloudy 60 15.6 54 12.2 80 80 NE 8 13 30.19 1023 10 16 0.00 0.00
6:53 am 06:53 Cloudy 59 15 54 12.2 83 83 Calm 30.20 1023 10 16 0.00 0.00
7:38 am 07:38 Cloudy 60 15.6 54 12.2 80 80 VRB 5 7 30.22 1023 10 16 0.00 0.00
7:53 am 07:53 Cloudy 61 16.1 55 12.8 81 81 VRB 5 7 30.21 1023 10 16 0.00 0.00
8:53 am 08:53 Mostly Cloudy 64 17.8 55 12.8 73 73 VRB 6 9 30.21 1023 10 16 0.00 0.00
9:00 am 09:00 Mostly Cloudy 63 17.2 55 12.8 76 76 VRB 6 9 30.22 1024 10 16 0.00 0.00
9:28 am 09:28 Mostly Cloudy 65 18.3 55 12.8 70 70 VRB 6 9 30.21 1023 10 16 0.00 0.00
9:53 am 09:53 Cloudy 66 18.9 56 13.3 70 70 VRB 5 7 30.21 1023 10 16 0.00 0.00
10:06 am 10:06 Cloudy 66 18.9 56 13.3 70 70 undefined N/A 30.21 1023 10 16 0.00 0.00
10:53 am 10:53 Cloudy 65 18.3 56 13.3 73 73 VRB 6 9 30.21 1023 10 16 0.00 0.00
11:22 am 11:22 Cloudy 65 18.3 56 13.3 73 73 VRB 3 6 30.22 1023 10 16 0.00 0.00
11:41 am 11:41 Cloudy 64 17.8 55 12.8 73 73 NE 8 13 30.22 1023 10 16 0.00 0.00
11:53 am 11:53 Cloudy 64 17.8 55 12.8 73 73 VRB 6 9 30.22 1023 10 16 0.00 0.00
12:05 pm 12:05 Cloudy 65 18.3 56 13.3 73 73 VRB 7 11 30.22 1023 10 16 0.00 0.00
12:53 pm 12:53 Cloudy 67 19.4 55 12.8 66 66 VRB 3 6 30.20 1023 10 16 0.00 0.00
1:53 pm 13:53 Cloudy 69 20.6 57 13.9 66 66 VRB 5 7 30.18 1022 10 16 0.00 0.00
2:53 pm 14:53 Mostly Cloudy 71 21.7 57 13.9 61 61 VRB 7 11 30.16 1022 10 16 0.00 0.00
3:53 pm 15:53 Mostly Cloudy 71 21.7 57 13.9 61 61 VRB 6 9 30.15 1021 10 16 0.00 0.00
4:53 pm 16:53 Partly Cloudy 72 22.2 57 13.9 59 59 VRB 3 6 30.13 1020 10 16 0.00 0.00
5:53 pm 17:53 Mostly Cloudy 72 22.2 57 13.9 59 59 S 9 15 30.11 1020 10 16 0.00 0.00
6:53 pm 18:53 Mostly Cloudy 70 21.1 58 14.4 66 66 ESE 3 6 30.11 1020 10 16 0.00 0.00
7:53 pm 19:53 Mostly Cloudy 69 20.6 58 14.4 68 68 VRB 5 7 30.11 1020 10 16 0.00 0.00
8:53 pm 20:53 Cloudy 67 19.4 57 13.9 71 71 VRB 6 9 30.11 1020 10 16 0.00 0.00
9:53 pm 21:53 Cloudy 65 18.3 57 13.9 76 76 VRB 3 6 30.13 1020 10 16 0.00 0.00
10:53 pm 22:53 Cloudy 63 17.2 57 13.9 81 81 VRB 3 6 30.15 1021 10 16 0.00 0.00
11:53 pm 23:53 Cloudy 62 16.7 55 12.8 78 78 VRB 3 6 30.16 1021 10 16 0.00 0.00

Powered by AerisWeather